FW7227 Weather Reports


Display with metric or nautical units.
time (UTC)temp
F
wind
direction
speed
MPH
gust
MPH
rain 1hr
in
rain 24hr
in
rain mn
in
humidity
%
barometer
mb
20260901184058 63 257 5.0 12.0 0.00 0.08 0.08 79 1019.2
20260901183557 63 262 6.0 12.0 0.00 0.08 0.08 78 1019.0
20260901183103 63 265 6.0 12.0 0.00 0.08 0.08 78 1019.0
20260901182601 63 254 4.0 9.0 0.00 0.08 0.08 79 1019.0
20260901182058 63 259 3.0 8.0 0.00 0.08 0.08 78 1018.9
20260901181611 64 276 2.0 7.0 0.00 0.08 0.08 78 1018.9
20260901181057 64 267 2.0 8.0 0.00 0.08 0.08 78 1018.9
20260901180557 64 264 4.0 8.0 0.00 0.08 0.08 78 1018.8
20260901180107 64 244 3.0 8.0 0.00 0.08 0.08 78 1018.8
20260901175558 64 257 3.0 8.0 0.00 0.14 0.08 78 1018.8
20260901175057 64 233 3.0 8.0 0.00 0.14 0.08 78 1018.8
20260901174602 64 242 3.0 7.0 0.00 0.14 0.08 77 1018.7
20260901174058 64 241 2.0 7.0 0.00 0.14 0.08 77 1018.7
20260901173558 64 232 2.0 8.0 0.00 0.14 0.08 77 1018.6
20260901173103 65 248 3.0 8.0 0.00 0.14 0.08 76 1018.7
20260901172557 65 237 4.0 9.0 0.00 0.14 0.08 76 1018.6
20260901172059 65 257 4.0 11.0 0.00 0.14 0.08 75 1018.6
20260901171607 65 277 5.0 11.0 0.00 0.14 0.08 75 1018.6
20260901171058 65 268 5.0 12.0 0.00 0.14 0.08 74 1018.6
20260901170558 65 241 4.0 12.0 0.00 0.14 0.08 74 1018.7
20260901170100 66 247 6.0 12.0 0.00 0.14 0.08 74 1018.7
20260901165557 66 245 6.0 12.0 0.00 0.16 0.08 74 1018.7
20260901165058 66 257 7.0 12.0 0.00 0.16 0.08 72 1018.7
20260901164606 66 219 4.0 13.0 0.00 0.16 0.08 72 1018.7
20260901164057 67 258 7.0 13.0 0.00 0.16 0.08 70 1018.6
20260901163557 67 265 5.0 12.0 0.00 0.16 0.08 71 1018.5
20260901163107 67 281 6.0 13.0 0.00 0.16 0.08 70 1018.5
20260901162600 67 254 7.0 13.0 0.00 0.16 0.08 69 1018.4
20260901162057 68 273 6.0 13.0 0.00 0.16 0.08 69 1018.4
20260901161611 67 257 7.0 13.0 0.00 0.16 0.08 70 1018.4
20260901161058 67 299 8.0 13.0 0.00 0.16 0.08 70 1018.6
20260901160556 67 255 6.0 12.0 0.00 0.16 0.08 72 1018.5
20260901160111 66 224 6.0 12.0 0.00 0.16 0.08 72 1018.5
20260901155558 67 243 6.0 11.0 0.00 0.17 0.08 73 1018.5
20260901155102 66 272 5.0 14.0 0.00 0.17 0.08 74 1018.4
20260901154605 66 240 5.0 14.0 0.00 0.17 0.08 74 1018.5
20260901154057 66 291 7.0 13.0 0.00 0.17 0.08 73 1018.5
20260901153558 66 270 6.0 11.0 0.00 0.17 0.08 73 1018.5
20260901153105 66 267 5.0 13.0 0.00 0.17 0.08 73 1018.5
20260901152557 66 262 5.0 15.0 0.00 0.17 0.08 72 1018.5
20260901152057 66 265 6.0 16.0 0.00 0.17 0.08 71 1018.5
20260901151611 66 265 8.0 21.0 0.00 0.17 0.08 70 1018.5
20260901151059 66 250 11.0 21.0 0.00 0.17 0.08 69 1018.5
20260901150559 67 275 11.0 19.0 0.00 0.17 0.08 66 1018.5
20260901150103 67 248 8.0 18.0 0.00 0.17 0.08 67 1018.5
20260901145558 68 239 10.0 19.0 0.00 0.22 0.08 66 1018.5
20260901145059 68 276 7.0 19.0 0.00 0.22 0.08 68 1018.5
20260901144611 67 253 7.0 17.0 0.00 0.22 0.08 68 1018.4
20260901144101 67 317 8.0 17.0 0.00 0.22 0.08 72 1018.5
20260901143558 67 276 4.0 11.0 0.00 0.22 0.08 77 1018.5
20260901143105 67 275 3.0 13.0 0.00 0.22 0.08 73 1018.4
20260901142556 68 284 5.0 13.0 0.00 0.22 0.08 70 1018.3
20260901142057 68 284 5.0 12.0 0.00 0.22 0.08 71 1018.4
20260901141605 68 281 7.0 18.0 0.00 0.22 0.08 72 1018.3
20260901141058 67 271 6.0 18.0 0.00 0.22 0.08 73 1018.3
20260901140558 67 324 7.0 19.0 0.00 0.22 0.08 73 1018.4
20260901140111 69 262 9.0 19.0 0.00 0.22 0.08 70 1018.3
20260901135557 70 301 5.0 17.0 0.00 0.25 0.08 66 1018.3
20260901135058 70 260 10.0 17.0 0.00 0.25 0.08 64 1018.2
20260901134608 71 236 9.0 18.0 0.00 0.25 0.08 62 1018.3
20260901134100 71 273 9.0 18.0 0.00 0.25 0.08 62 1018.4
20260901133557 72 277 10.0 18.0 0.00 0.25 0.08 60 1018.3
20260901133105 73 279 9.0 18.0 0.00 0.25 0.08 58 1018.2
20260901132557 72 260 11.0 21.0 0.00 0.25 0.08 59 1018.1
20260901132057 73 277 12.0 21.0 0.00 0.25 0.08 57 1018.1
20260901131602 73 277 8.0 18.0 0.00 0.25 0.08 58 1018.1
20260901131100 72 258 10.0 18.0 0.00 0.25 0.08 59 1018.2
20260901130557 72 250 10.0 19.0 0.00 0.25 0.08 60 1018.2
20260901130106 70 279 11.0 19.0 0.00 0.25 0.08 60 1018.2
20260901125558 71 242 9.0 19.0 0.00 0.25 0.08 63 1018.2
20260901125057 72 252 12.0 19.0 0.00 0.25 0.08 61 1018.1
20260901124602 72 250 9.0 16.0 0.00 0.25 0.08 62 1018.1
20260901124058 73 255 8.0 17.0 0.00 0.25 0.08 59 1018.2
20260901123558 72 274 10.0 17.0 0.00 0.25 0.08 60 1018.2
20260901123102 72 273 10.0 17.0 0.00 0.25 0.08 62 1018.2
20260901122557 71 279 9.0 18.0 0.00 0.25 0.08 63 1018.2
20260901122056 71 263 9.0 18.0 0.00 0.25 0.08 62 1018.2
20260901121559 72 209 8.0 18.0 0.00 0.25 0.08 61 1018.1
20260901121058 72 259 10.0 18.0 0.00 0.25 0.08 61 1018.1
20260901120558 73 287 10.0 16.0 0.00 0.25 0.08 61 1018.1
20260901120105 72 236 9.0 17.0 0.00 0.25 0.08 64 1018.2
20260901115557 70 240 9.0 17.0 0.00 0.25 0.08 64 1018.2
20260901115057 71 281 9.0 15.0 0.00 0.25 0.08 65 1018.2
20260901114645 70 232 8.0 15.0 0.00 0.25 0.08 66 1018.2
20260901114058 70 244 8.0 16.0 0.00 0.25 0.08 66 1018.3
20260901113557 70 267 10.0 19.0 0.00 0.25 0.08 65 1018.3
20260901113101 69 235 12.0 20.0 0.00 0.25 0.08 65 1018.3
20260901112556 70 250 10.0 20.0 0.00 0.25 0.08 66 1018.3
20260901112057 70 263 10.0 20.0 0.00 0.25 0.08 66 1018.3
20260901111620 70 244 11.0 20.0 0.00 0.25 0.08 64 1018.3
20260901111058 70 265 9.0 19.0 0.00 0.25 0.08 65 1018.2
20260901110559 70 267 10.0 19.0 0.00 0.25 0.08 65 1018.2
20260901110104 70 273 10.0 19.0 0.00 0.25 0.08 66 1018.2
20260901105558 69 273 9.0 19.0 0.00 0.25 0.08 67 1018.2
20260901105058 69 239 9.0 19.0 0.00 0.25 0.08 67 1018.3
20260901104603 69 277 10.0 19.0 0.00 0.25 0.08 67 1018.2
20260901104057 70 251 11.0 20.0 0.00 0.25 0.08 65 1018.2
20260901103557 70 252 10.0 20.0 0.00 0.25 0.08 70 1018.1
20260901103059 69 259 7.0 17.0 0.00 0.25 0.08 69 1018.2
20260901102557 70 251 9.0 23.0 0.00 0.25 0.08 69 1018.1
20260901102102 69 275 11.0 23.0 0.00 0.25 0.08 70 1018.2
20260901101607 69 281 13.0 22.0 0.00 0.25 0.08 69 1018.3
20260901101056 69 248 8.0 17.0 0.00 0.25 0.08 69 1018.2
20260901100557 68 246 8.0 17.0 0.00 0.25 0.08 74 1018.2
20260901100107 67 254 9.0 17.0 0.00 0.25 0.08 73 1018.1
20260901095601 67 229 8.0 18.0 0.00 0.25 0.08 76 1018.1
20260901095058 66 250 7.0 18.0 0.00 0.25 0.08 76 1018.1
20260901094604 65 232 9.0 16.0 0.00 0.25 0.08 78 1018.1
20260901094056 65 255 7.0 17.0 0.00 0.25 0.08 79 1018.1
20260901093557 65 259 9.0 17.0 0.00 0.25 0.08 79 1018.1
20260901093104 65 268 11.0 17.0 0.00 0.25 0.08 78 1018.1
20260901092557 65 244 8.0 17.0 0.00 0.25 0.08 78 1018.0
20260901092057 66 271 5.0 17.0 0.00 0.25 0.08 78 1018.1
20260901091612 66 271 3.0 17.0 0.00 0.25 0.08 81 1018.0
20260901091056 65 294 7.0 17.0 0.00 0.25 0.08 81 1018.1
20260901090556 64 260 9.0 18.0 0.00 0.25 0.08 81 1018.0
20260901090108 65 254 8.0 18.0 0.00 0.25 0.08 80 1018.0
20260901085557 65 286 7.0 15.0 0.00 0.25 0.08 82 1018.0
20260901085100 64 265 8.0 16.0 0.00 0.25 0.08 82 1017.9
20260901084608 64 257 7.0 16.0 0.00 0.25 0.08 83 1017.9
20260901084057 64 262 10.0 16.0 0.00 0.25 0.08 83 1017.9
20260901083558 64 269 9.0 17.0 0.00 0.25 0.08 84 1017.8
20260901083107 64 250 8.0 17.0 0.00 0.25 0.08 85 1017.8
20260901082557 63 259 9.0 14.0 0.00 0.25 0.08 85 1017.8
20260901082059 63 223 7.0 14.0 0.00 0.25 0.08 86 1017.8
20260901081607 63 234 6.0 17.0 0.00 0.25 0.08 87 1017.8
20260901081056 63 259 7.0 17.0 0.00 0.25 0.08 87 1017.8
20260901080556 63 253 8.0 17.0 0.00 0.25 0.08 88 1017.8
20260901080104 63 248 9.0 17.0 0.00 0.25 0.08 88 1017.7
20260901075556 62 250 8.0 15.0 0.07 0.25 0.08 90 1017.7
20260901075057 62 229 8.0 15.0 0.07 0.25 0.08 90 1017.7
20260901074603 61 238 7.0 13.0 0.07 0.25 0.08 90 1017.6
20260901074058 61 254 7.0 13.0 0.08 0.25 0.08 91 1017.6
20260901073557 61 256 7.0 13.0 0.08 0.25 0.08 91 1017.6
20260901073121 61 254 4.0 12.0 0.08 0.25 0.08 91 1017.6
20260901072558 61 239 4.0 10.0 0.08 0.25 0.08 92 1017.5
20260901072057 60 241 4.0 10.0 0.08 0.25 0.08 91 1017.6
20260901071606 60 271 4.0 9.0 0.08 0.25 0.08 91 1017.5
20260901071057 60 238 4.0 9.0 0.07 0.24 0.07 90 1017.5
20260901070558 60 256 3.0 9.0 0.07 0.24 0.07 89 1017.5
20260901070115 61 278 4.0 11.0 0.07 0.24 0.07 89 1017.5
20260901065557 61 269 4.0 14.0 0.01 0.18 0.01 88 1017.5
20260901065056 61 255 7.0 15.0 0.00 0.17 0.00 87 1017.4
20260901064610 61 277 7.0 15.0 0.00 0.17 0.00 85 1017.4
20260901064057 61 254 7.0 15.0 0.00 0.16 0.00 85 1017.2
20260901063556 61 258 8.0 15.0 0.00 0.16 0.00 85 1017.2
20260901063104 61 271 8.0 15.0 0.00 0.16 0.00 85 1017.2
20260901062559 61 253 7.0 12.0 0.00 0.16 0.00 86 1017.2
20260901062059 61 233 7.0 15.0 0.00 0.16 0.00 86 1017.2
20260901061606 60 245 5.0 15.0 0.00 0.16 0.00 86 1017.1
20260901061058 60 234 7.0 13.0 0.00 0.16 0.00 86 1017.1
20260901060557 60 217 5.0 13.0 0.00 0.16 0.00 87 1017.0
20260901060103 60 248 6.0 16.0 0.00 0.16 0.00 86 1017.0
20260901055556 60 232 7.0 16.0 0.00 0.16 0.00 87 1017.0
20260901055057 60 229 5.0 12.0 0.00 0.16 0.00 87 1016.9
20260901054605 60 244 6.0 12.0 0.00 0.16 0.00 87 1016.8
20260901054057 59 248 5.0 10.0 0.00 0.16 0.00 87 1016.8
20260901053559 59 232 5.0 10.0 0.00 0.16 0.00 87 1016.8
20260901053114 59 249 5.0 10.0 0.00 0.16 0.00 87 1016.8
20260901052556 59 243 4.0 9.0 0.00 0.16 0.00 88 1016.7
20260901052056 59 235 3.0 11.0 0.00 0.16 0.00 87 1016.6
20260901051604 59 243 6.0 11.0 0.00 0.16 0.00 87 1016.6
20260901051056 59 227 4.0 10.0 0.00 0.16 0.00 87 1016.6
20260901050629 59 249 4.0 11.0 0.00 0.16 0.00 87 1016.6
20260901050104 59 239 4.0 11.0 0.00 0.16 0.00 87 1016.4
20260901045558 59 265 7.0 11.0 0.00 0.16 0.00 87 1016.4
20260901045057 59 277 6.0 11.0 0.00 0.16 0.00 87 1016.4
20260901044601 59 229 4.0 10.0 0.00 0.16 0.00 87 1016.3
20260901044058 59 237 5.0 13.0 0.00 0.16 0.00 87 1016.2
20260901043557 59 246 5.0 13.0 0.00 0.16 0.00 87 1016.2
20260901043059 59 242 5.0 12.0 0.00 0.16 0.00 87 1016.1
20260901042555 59 250 4.0 12.0 0.00 0.16 0.00 87 1016.1
20260901042056 59 254 5.0 12.0 0.00 0.16 0.00 87 1016.1
20260901041604 59 247 6.0 10.0 0.00 0.16 0.00 87 1016.1
20260901041057 59 266 6.0 12.0 0.00 0.16 0.00 86 1016.0
20260901040556 59 244 5.0 12.0 0.00 0.16 0.00 86 1015.9
20260901040105 59 255 5.0 13.0 0.00 0.16 0.00 86 1015.8
20260901035556 59 234 6.0 13.0 0.00 0.16 0.00 86 1015.8
20260901035056 59 228 5.0 11.0 0.00 0.16 0.00 86 1015.8
20260901034602 60 257 6.0 11.0 0.00 0.16 0.00 86 1015.8
20260901034055 60 248 5.0 11.0 0.00 0.16 0.00 86 1015.8
20260901033555 60 252 5.0 10.0 0.00 0.16 0.00 86 1015.7
20260901033119 60 259 5.0 10.0 0.00 0.16 0.00 86 1015.7
20260901032559 60 262 5.0 11.0 0.00 0.16 0.00 86 1015.6
20260901032056 60 275 6.0 11.0 0.00 0.16 0.00 86 1015.6
20260901031604 60 257 6.0 12.0 0.00 0.16 0.00 86 1015.7
20260901031055 60 260 6.0 12.0 0.00 0.16 0.00 85 1015.6
20260901030556 60 254 6.0 15.0 0.00 0.16 0.00 85 1015.6
20260901030107 60 279 8.0 15.0 0.00 0.16 0.00 85 1015.6
20260901025556 60 261 5.0 12.0 0.00 0.16 0.00 85 1015.5
20260901025056 60 265 6.0 12.0 0.00 0.16 0.00 85 1015.4
20260901024603 60 252 6.0 15.0 0.00 0.16 0.00 85 1015.4
20260901024055 60 250 7.0 15.0 0.00 0.16 0.00 85 1015.4
20260901023555 60 253 7.0 15.0 0.00 0.16 0.00 85 1015.4
20260901023104 60 288 6.0 14.0 0.00 0.16 0.00 85 1015.4
20260901022555 60 266 5.0 15.0 0.00 0.16 0.00 85 1015.4
20260901022055 60 258 8.0 15.0 0.00 0.16 0.00 85 1015.4
20260901021610 60 236 7.0 15.0 0.00 0.16 0.00 85 1015.3
20260901021055 60 265 6.0 15.0 0.00 0.16 0.00 85 1015.3
20260901020555 60 262 6.0 17.0 0.00 0.16 0.00 85 1015.3
20260901020119 60 251 6.0 17.0 0.00 0.16 0.00 85 1015.2
20260901015558 60 294 8.0 16.0 0.00 0.16 0.00 85 1015.3
20260901015058 60 265 7.0 16.0 0.00 0.16 0.00 85 1015.2
20260901014601 60 265 7.0 16.0 0.00 0.16 0.00 85 1015.2
20260901014058 60 238 6.0 13.0 0.00 0.16 0.00 85 1015.2
20260901013558 60 263 5.0 14.0 0.00 0.16 0.00 85 1015.2
20260901013115 60 257 6.0 14.0 0.00 0.16 0.00 85 1015.2
20260901012557 60 253 5.0 14.0 0.00 0.16 0.00 85 1015.2
20260901012058 60 248 6.0 13.0 0.00 0.16 0.00 85 1015.1
20260901011621 60 281 7.0 14.0 0.00 0.16 0.00 85 1015.1
20260901011057 60 270 8.0 14.0 0.00 0.16 0.00 86 1015.1
20260901010558 60 254 6.0 12.0 0.00 0.16 0.00 86 1015.1
20260901010117 60 280 7.0 14.0 0.00 0.16 0.00 86 1015.1
20260901005558 60 264 7.0 14.0 0.00 0.16 0.00 86 1015.1
20260901005059 60 246 8.0 12.0 0.00 0.16 0.00 86 1015.1
20260901004604 60 244 5.0 12.0 0.00 0.16 0.00 86 1015.0
20260901004057 60 269 7.0 13.0 0.00 0.16 0.00 86 1015.0
20260901003600 60 238 5.0 14.0 0.00 0.16 0.00 86 1015.0
20260901003105 60 258 8.0 17.0 0.00 0.16 0.00 86 1014.9
20260901002601 60 271 8.0 17.0 0.00 0.16 0.00 86 1014.9
20260901002100 60 265 7.0 16.0 0.00 0.16 0.00 86 1014.9
20260901001604 60 267 7.0 15.0 0.00 0.16 0.00 86 1014.9
20260901001057 60 262 7.0 15.0 0.00 0.16 0.00 86 1014.8
20260901000558 60 262 5.0 15.0 0.00 0.16 0.00 86 1014.8
20260901000104 60 284 7.0 15.0 0.00 0.16 0.00 86 1014.7
20260831235558 60 260 5.0 14.0 0.00 0.16 0.00 86 1014.7
20260831235058 60 274 7.0 16.0 0.00 0.16 0.00 86 1014.6
20260831234604 60 302 8.0 18.0 0.00 0.16 0.00 86 1014.5
20260831234057 60 234 8.0 18.0 0.00 0.16 0.00 86 1014.5
20260831233558 60 261 7.0 16.0 0.00 0.16 0.00 86 1014.4
20260831233103 60 240 8.0 15.0 0.00 0.16 0.00 86 1014.5
20260831232559 60 274 8.0 14.0 0.00 0.16 0.00 86 1014.3
20260831232100 60 260 8.0 18.0 0.00 0.16 0.00 86 1014.2
20260831231604 60 258 7.0 18.0 0.00 0.16 0.00 87 1014.2
20260831231057 59 257 10.0 18.0 0.00 0.16 0.00 87 1014.2
20260831230601 59 238 7.0 14.0 0.00 0.16 0.00 87 1014.1
20260831230120 59 262 7.0 15.0 0.00 0.16 0.00 88 1014.2
20260831225601 59 258 8.0 15.0 0.00 0.16 0.00 88 1014.2
20260831225058 59 233 6.0 14.0 0.00 0.16 0.00 89 1014.1
20260831224611 59 238 6.0 14.0 0.00 0.16 0.00 88 1014.1
20260831224101 59 241 8.0 14.0 0.00 0.16 0.00 88 1014.0
20260831223559 59 262 8.0 14.0 0.00 0.16 0.00 88 1014.0
20260831223101 59 238 8.0 15.0 0.00 0.16 0.00 88 1014.0
20260831222556 59 243 9.0 17.0 0.00 0.16 0.00 88 1014.0
20260831222059 59 262 7.0 17.0 0.00 0.16 0.00 89 1014.0
20260831221610 59 256 8.0 15.0 0.00 0.16 0.00 90 1013.9
20260831221057 58 251 7.0 15.0 0.00 0.16 0.00 90 1014.0
20260831220557 58 243 6.0 10.0 0.00 0.16 0.00 90 1014.0
20260831220115 58 247 4.0 10.0 0.00 0.16 0.00 90 1013.9
20260831215556 58 234 4.0 10.0 0.00 0.16 0.16 90 1013.8
20260831215056 58 247 4.0 10.0 0.00 0.16 0.16 90 1013.8
20260831214610 58 244 4.0 12.0 0.00 0.16 0.16 90 1013.8
20260831214055 58 238 6.0 12.0 0.00 0.16 0.16 90 1013.8
20260831213556 58 246 4.0 11.0 0.00 0.16 0.16 90 1013.7
20260831213058 58 225 5.0 11.0 0.00 0.16 0.16 90 1013.6
20260831212556 57 237 5.0 10.0 0.00 0.16 0.16 90 1013.6
20260831212058 57 230 4.0 12.0 0.00 0.16 0.16 90 1013.6
20260831211608 58 239 3.0 12.0 0.00 0.16 0.16 90 1013.5
20260831211056 58 229 4.0 10.0 0.00 0.16 0.16 89 1013.3
20260831210555 58 236 4.0 10.0 0.00 0.16 0.16 89 1013.3
20260831210100 58 248 5.0 10.0 0.00 0.16 0.16 89 1013.4
20260831205556 58 238 5.0 11.0 0.00 0.16 0.16 89 1013.4
20260831205057 58 236 4.0 11.0 0.00 0.16 0.16 89 1013.4
20260831204603 58 261 4.0 11.0 0.00 0.16 0.16 89 1013.4
20260831204056 58 236 5.0 11.0 0.00 0.16 0.16 89 1013.4
20260831203558 58 244 6.0 12.0 0.00 0.16 0.16 89 1013.3
20260831203108 58 227 5.0 13.0 0.00 0.16 0.16 90 1013.2
20260831202555 58 217 7.0 13.0 0.00 0.16 0.16 90 1013.2
20260831202056 58 225 5.0 12.0 0.00 0.16 0.16 90 1013.2
20260831201601 58 242 6.0 12.0 0.00 0.16 0.16 90 1013.1
20260831201100 58 239 5.0 10.0 0.00 0.16 0.16 90 1013.1
20260831200556 58 252 3.0 11.0 0.00 0.16 0.16 90 1013.0
20260831200110 58 243 6.0 11.0 0.00 0.16 0.16 89 1013.0
20260831195559 58 234 6.0 11.0 0.00 0.16 0.16 89 1013.0
20260831195056 59 232 4.0 11.0 0.00 0.16 0.16 89 1012.9
20260831194618 59 213 6.0 14.0 0.00 0.16 0.16 89 1012.8
20260831194056 59 229 7.0 14.0 0.00 0.16 0.16 89 1012.8
20260831193558 59 258 5.0 12.0 0.00 0.16 0.16 90 1012.8
20260831193101 59 236 5.0 14.0 0.00 0.16 0.16 90 1012.7
20260831192558 59 231 6.0 14.0 0.00 0.16 0.16 90 1012.7
20260831192058 59 240 4.0 14.0 0.00 0.16 0.16 89 1012.7
20260831191615 59 229 7.0 14.0 0.00 0.16 0.16 89 1012.7
20260831191100 58 238 7.0 17.0 0.00 0.16 0.16 89 1012.5
20260831190600 58 260 6.0 17.0 0.00 0.16 0.16 90 1012.4
20260831190115 58 248 7.0 14.0 0.00 0.16 0.16 90 1012.4
20260831185558 59 221 7.0 14.0 0.00 0.16 0.16 90 1012.2
20260831185057 59 234 6.0 14.0 0.00 0.16 0.16 90 1012.2
20260831184605 59 248 4.0 14.0 0.00 0.16 0.16 89 1012.2